Miscellaneous Local Product
Issued by NWS North Platte, NE

Home | Current Version | Previous Version | Text Only | Print | Product List | Glossary On
Versions: 1 2 3 4 5 6 7 8 9 10 11 12 13 14 15 16 17 18 19 20 21 22 23 24 25 26 27 28 29 30 31 32 33 34 35 36 37 38 39 40 41 42 43 44 45 46 47 48 49 50
000
AXUS43 KLBF 231610
MISLBF


WESTERN AND NORTH CENTRAL NEBRASKA HOURLY WEATHER ROUNDUP
NATIONAL WEATHER SERVICE NORTH PLATTE NE
1100 AM CDT THU OCT 23 2014

***STATIONS NOT REPORTING VARIABLES SUCH AS SKY/WEATHER OR
PRESSURE ARE PROVIDED BY THE NEBRASKA DEPARTMENT OF
ROADS...RAWS...AND APRS NETWORKS...AND ARE NOT UNDER
NATIONAL WEATHER SERVICE QUALITY CONTROL***

...OBSERVATIONS IN AND NEAR THE EASTERN PANHANDLE OF NEBRASKA...

CITY           SKY/WX    TMP DP  RH WIND       PRES   REMARKS
PINE RIDGE     MOSUNNY   49  36  61 CALM      30.03S
CHADRON        CLOUDY    52  39  61 W3        30.03F
ALLIANCE       PTSUNNY   54  32  43 W3        30.07S
SIDNEY         SUNNY     62  41  46 SW9       30.12F
WHITECLAY        N/A     51  33  50 E6          N/A
RUSHVILLE        N/A     51  34  52 SW12        N/A
CRESCENT LAKE    N/A     59  38  45 SW9         N/A
LISCO            N/A     50  33  51 CALM        N/A
BIG SPRINGS      N/A     43  39  85 NW3         N/A
LEWELLEN         N/A     55  39  54 CALM        N/A
$$

...OBSERVATIONS IN NORTH CENTRAL NEBRASKA...

CITY           SKY/WX    TMP DP  RH WIND       PRES   REMARKS
VALENTINE      SUNNY     51  38  60 SW10      30.04F
THEDFORD       SUNNY     59  43  55 W6        30.08F
AINSWORTH      SUNNY     55  43  64 SW9       30.05S
O`NEILL        SUNNY     61  55  81 S13       30.06F
ORD            CLOUDY    51  50  96 CALM      30.09S FOG
BROKEN BOW     CLOUDY    53  53 100 SW7       30.10R FOG
BROWNLEE         N/A     61  32  33 SW7         N/A
SPRINGVIEW       N/A     47  46  96 CALM        N/A
BREWSTER         N/A     56  51  84 SW6         N/A
ROSE             N/A     48  48  99 SE7         N/A
NEWPORT          N/A     56  47  71 S10         N/A
SARGENT          N/A     45  45  99 CALM        N/A
COMSTOCK         N/A     57  57  99 CALM        N/A
CHAMBERS         N/A     60  54  82 S8          N/A
EWING            N/A     57  56  97 CALM        N/A
$$

...OBSERVATIONS IN SOUTHWEST NEBRASKA AND FAR NORTHEAST COLORADO...

CITY           SKY/WX    TMP DP  RH WIND       PRES   REMARKS
WRAY           FAIR      65  46  50 SW7       30.14S
HOLYOKE        FAIR      63  45  51 SW3       30.13S
IMPERIAL       MOSUNNY   59  44  57 SW8       30.13S
OGALLALA       SUNNY     54  41  60 W8        30.11S
NORTH PLATTE   SUNNY     52  43  71 CALM      30.11S
MCCOOK         SUNNY     50  48  93 SW8       30.13S
LEXINGTON      FOG       52  51  98 CALM      30.11F VSB 1/4
PAXTON           N/A     43  39  85 CALM        N/A
SUTHERLAND       N/A     54  34  47 W6          N/A
BRADY            N/A     48  47  95 CALM        N/A
GOTHENBURG       N/A     49  47  93 CALM        N/A
CALLAWAY         N/A     51  50  98 S3          N/A
$$

...SOME WEATHER OBSERVATIONS FROM AROUND THE REGION...

CITY           SKY/WX    TMP DP  RH WIND       PRES   REMARKS
DENVER         PTSUNNY   61  33  35 SW9       30.19R
LARAMIE        CLOUDY    52  27  38 SW17      30.21F
CHEYENNE       CLOUDY    57  32  38 SW10      30.18R
SCOTTSBLUFF    PTSUNNY   49  34  56 SE3       30.10F
RAPID CITY     PTSUNNY   53  28  38 CALM      29.98F
PIERRE         SUNNY     50  38  63 S6        29.97S
WINNER         FAIR      58  40  51 SW10      30.00F
SIOUX FALLS    MOSUNNY   58  50  75 CALM      30.04S
OMAHA          PTSUNNY   61  56  83 W7        30.08R
GRAND ISLAND   FOG       50  49  96 S8        30.12R VSB<1/4
KANSAS CITY    CLOUDY    63  60  90 SW9       30.10R
WICHITA        CLOUDY    65  60  84 S8        30.11R
HAYS           CLOUDY    59  55  88 S3        30.13R VSB 1/2
LIBERAL        CLOUDY    57  54  88 NE7       30.15R VSB 1/2
GOODLAND       SUNNY     63  48  58 S5        30.15F
$$



USA.gov is the U.S. government's official web portal to all federal, state and local government web resources and services.